Tracking 29892 objects as of 21-Nov-2024
HD Live streaming from Space Station
objects crossing your sky now

SL-14 R/B

Track SL-14 R/B now!
10-day predictions


NORAD ID: 19852
Int'l Code: 1989-018B
Perigee: 943.4 km
Apogee: 969.4 km
Inclination: 82.5 °
Period: 104.0 minutes
Semi major axis: 7327 km
RCS: 4.892 m2 (large)
Launch date: February 28, 1989
Source: Commonwealth of Independent States (former USSR) (CIS)
Launch site: PLESETSK MISSILE AND SPACE COMPLEX (PKMTR)

Note: This is a ROCKET BODY
Your satellite tracking list
Your tracking list is empty




NASA's NSSDC Master Catalog

Two Line Element Set (TLE):
1 19852U 89018B   24325.90060971  .00000066  00000-0  45607-4 0  9997
2 19852  82.5191 290.2226 0017796  18.3144 341.8653 13.84135265804928
Source of the keplerian elements: AFSPC